Location: Leipzig
(51.3397°N, 12.3731°E)
Time: 05:56:56
(UTC+01:00)

BlueWalker 3 - Visible Passes

Search period start: 08 December 2025 00:00
Search period end: 18 December 2025 00:00
Orbit: 455 x 462 km, 53.2° (Epoch: 06 December)

Date Brightness Start Highest point End Pass type
(mag) Time Alt. Az. Time Alt. Az. Time Alt. Az.
08 Dec 3.3 17:27:26 10° W 17:30:48 36° SSW 17:34:09 10° SE visible
09 Dec 3.0 16:52:32 10° WNW 16:56:00 43° SSW 16:59:28 10° SE visible
10 Dec 5.0 17:56:32 10° WSW 17:58:04 12° SW 17:59:36 10° SSW visible
11 Dec 4.9 17:21:10 10° W 17:23:20 15° SW 17:25:29 10° S visible
12 Dec 4.9 16:45:59 10° W 16:48:33 18° SW 16:51:07 10° S visible
17 Dec 5.8 07:24:31 10° SE 07:24:49 10° SE 07:25:07 10° SE visible
